Tracking 19246 objects as of 20-Aug-2018
HD Live streaming from Space Station
objects crossing your sky now

NOAA 16 DEB

Track NOAA 16 DEB now!
10-day predictions


NORAD ID: 42338
Int'l Code: 2000-055QE
Perigee: 776.4 km
Apogee: 850.9 km
Inclination: 98.8 °
Period: 101.0 minutes
Semi major axis: 7184 km
RCS: Unknown
Launch date: September 21, 2000
Source: United States (US)
Launch site: AIR FORCE WESTERN TEST RANGE (AFWTR)

Note: This is SATELLITE DEBRIS
aabbcc
Your satellite tracking list
Your tracking list is empty




NASA's NSSDC Master Catalog

Two Line Element Set (TLE):
1 42338U 00055QE  18231.47765117 +.00001091 +00000-0 +47273-3 0  9990
2 42338 098.7585 310.2815 0051853 094.9885 265.7216 14.25591332128824
Source of the keplerian elements: AFSPC